Wind_Speed
2 1 1 1 0 1 2 2 2 2 3 3 2 2 2 2 2 2 2 3 3 3 2 2 3 4 5 6 8 10 10 11 10 8 4 1 4 6 5 3 2 2 2 3 2 2 2 3 4 3 2 2 3 1 1 2 1 1 1 0 1 1 1 3 5 3 1 3 4 2 0 2 2 2 1 1 4 2 4 2 3 9 10 9 7 6 8 10
2 1 1 1 2 2 3 3 3 3 3 3 4 4 3 3 3 3 3 3 3 3 3 3 3 4 5 6 8 10 11 12 7 3 2 2 6 7 4 3 3 3 3 3 3 1 1 2 3 3 1 1 1 1 0 1 2 1 0 0 1 2 2 1 3 3 1 2 2 2 1 2 2 2 3 4 2 2 4 1 5 8 8 9 10 10 11 12
1 1 1 2 3 3 3 3 4 4 4 4 4 4 3 3 3 3 3 3 3 3 3 3 3 4 5 6 8 9 11 9 2 2 2 4 8 6 4 3 3 3 3 3 3 2 2 4 3 1 1 1 2 1 0 1 2 0 1 1 2 2 1 1 2 2 1 1 1 1 2 2 1 1 3 6 8 5 2 4 2 2 4 8 9 11 12 12
1 0 1 2 3 4 4 4 5 4 5 5 4 4 3 3 4 3 3 3 3 3 3 3 4 4 5 6 7 8 10 5 1 1 2 5 7 5 3 3 3 3 2 2 3 4 5 5 4 2 0 1 2 1 0 3 2 1 1 1 4 1 2 3 3 1 1 1 2 0 1 2 1 1 3 4 7 2 4 6 5 4 6 6 7 10 11 12
2 2 2 3 3 4 4 4 5 5 5 5 4 4 4 4 4 4 3 3 3 3 3 4 4 5 5 6 5 7 8 3 2 2 3 5 6 5 4 3 3 2 2 3 5 6 5 4 3 2 1 1 1 0 1 3 2 1 1 3 4 1 1 4 3 1 2 2 1 2 2 0 2 1 3 4 5 2 3 6 6 5 5 6 7 8 9 12
3 3 3 4 4 4 4 4 4 5 5 5 5 4 4 4 4 4 4 3 3 4 4 4 4 5 4 4 4 4 5 2 2 5 5 5 6 5 4 4 3 3 2 3 5 4 3 2 1 1 1 1 0 1 2 2 2 1 1 1 1 2 1 3 4 3 4 3 3 2 1 1 3 2 1 2 2 4 4 4 5 5 5 5 6 8 10 11
4 4 4 4 5 5 5 5 5 5 5 6 5 5 4 3 4 5 4 3 3 4 4 4 4 4 3 2 3 2 1 2 3 7 6 5 6 5 4 4 4 3 3 4 5 3 2 1 1 1 1 1 1 1 2 1 1 2 1 2 1 2 3 1 3 3 5 5 2 1 0 3 4 2 2 2 3 4 4 4 4 5 5 6 8 10 10 10
6 5 5 5 5 5 5 5 5 5 6 6 6 5 4 4 4 5 4 4 4 4 4 4 3 3 1 1 0 1 1 2 3 7 7 5 5 6 5 4 4 4 3 4 4 3 3 2 2 2 1 1 1 2 1 1 2 2 0 2 1 2 4 2 2 4 6 5 2 2 4 4 2 2 4 3 4 3 3 4 3 4 6 8 9 10 10 10
7 6 6 6 5 5 5 5 5 6 6 6 6 5 5 4 4 4 4 4 4 4 3 3 3 1 2 2 1 3 2 2 3 5 5 6 6 6 6 4 5 5 4 4 4 5 4 2 2 3 0 3 2 2 1 3 1 1 0 0 2 2 3 3 5 5 4 3 3 4 4 1 1 2 4 3 3 3 3 4 4 5 8 9 9 10 10 11
8 7 7 6 5 5 5 5 5 6 6 6 6 6 5 5 5 4 4 4 4 4 3 3 2 2 3 3 1 3 1 2 2 3 4 6 6 6 6 5 5 6 5 5 5 5 2 2 4 3 1 3 2 1 1 2 1 1 1 2 4 3 3 3 4 3 2 2 5 6 3 3 2 2 2 3 3 3 3 5 6 6 8 8 7 8 9 9
10 9 8 6 6 6 5 5 5 6 7 7 6 5 5 5 4 4 4 4 4 3 3 2 2 2 3 3 4 4 2 3 3 3 4 5 6 6 6 5 5 6 6 5 5 5 2 4 7 3 0 3 3 2 1 0 2 1 1 4 5 4 4 3 4 3 1 2 4 5 2 4 2 2 1 4 3 3 3 5 6 6 6 6 6 6 6 8
10 9 9 8 8 8 6 5 6 6 6 6 6 5 5 5 4 4 4 4 4 3 3 2 2 4 4 2 5 5 3 4 4 4 5 5 6 6 6 6 6 5 6 5 6 5 3 8 9 3 1 3 3 1 2 2 1 1 1 5 5 5 4 0 1 1 1 1 2 4 4 4 4 3 3 3 2 3 3 4 5 5 5 5 5 5 6 8
11 10 9 8 7 9 9 9 6 6 6 6 5 4 5 4 3 4 3 3 3 2 2 3 3 5 3 2 4 6 7 6 5 5 6 6 6 6 7 6 6 6 5 5 7 7 6 9 6 3 2 2 1 1 3 3 1 1 1 3 6 6 2 2 1 2 1 1 2 3 3 3 6 5 3 2 3 5 3 4 4 4 4 4 4 4 6 8
12 11 10 7 7 10 12 12 7 6 6 6 4 4 4 3 3 3 2 3 3 2 2 3 5 6 3 3 2 5 9 8 6 7 7 8 8 8 7 7 6 6 5 5 8 8 7 8 6 5 2 2 2 4 3 2 0 1 1 1 2 4 1 4 1 3 2 1 2 5 4 1 8 5 4 3 3 6 3 4 4 4 4 4 4 4 5 7
12 13 12 8 7 10 12 13 9 6 6 5 4 4 3 2 2 1 1 1 1 2 2 3 6 5 2 4 2 3 7 7 8 9 8 9 9 7 7 8 8 7 6 7 9 10 9 9 6 5 2 2 3 4 2 1 0 1 3 3 2 2 1 3 2 2 1 1 1 5 4 1 8 5 4 4 1 4 3 4 4 4 4 3 3 3 4 5
14 15 12 8 8 11 13 13 9 6 6 5 3 2 1 1 1 1 2 1 2 3 4 4 6 3 3 2 2 2 5 6 8 10 10 11 9 8 11 11 10 9 10 10 12 12 9 6 3 1 1 2 4 3 2 3 2 1 3 4 2 3 3 0 3 1 2 0 1 3 4 0 6 5 4 3 0 3 4 4 4 3 3 3 3 3 3 3
15 14 10 8 9 10 12 10 8 7 5 2 0 2 1 2 2 3 4 5 6 5 4 4 5 2 3 1 2 3 4 6 8 10 12 11 9 12 14 9 7 9 11 11 9 7 4 3 1 1 1 1 3 3 3 5 5 2 2 4 3 3 4 2 2 2 1 3 2 1 5 4 5 6 2 3 1 3 5 4 3 3 2 2 2 2 2 3
16 13 10 11 11 10 11 9 8 8 1 3 1 2 1 4 4 4 6 8 8 6 3 4 4 1 4 4 3 2 4 6 9 10 11 11 11 14 12 6 6 9 10 6 3 2 1 1 1 2 2 2 4 5 6 5 4 3 4 4 3 3 5 4 2 1 1 3 4 2 6 7 5 7 3 3 2 3 5 4 3 3 2 2 2 2 2 3
16 14 14 13 12 10 10 8 8 6 2 1 0 3 4 4 2 2 5 5 4 3 1 4 6 2 2 3 3 5 7 8 9 9 10 12 13 12 8 7 7 6 7 4 3 2 1 2 2 3 5 7 8 10 10 4 1 2 3 3 4 5 6 4 1 1 1 3 7 7 9 10 6 7 5 3 3 3 4 4 3 2 2 2 2 1 2 3
16 16 15 11 9 9 10 9 7 4 4 2 2 5 4 2 2 2 3 4 6 4 1 5 8 2 1 2 5 8 9 7 4 6 11 13 14 10 6 5 4 3 4 4 4 2 1 4 6 8 8 9 12 13 7 1 3 1 2 3 5 6 7 3 3 2 1 3 7 7 8 12 9 4 6 4 4 4 4 4 3 3 2 2 2 2 2 3
18 17 14 9 8 8 11 10 8 5 5 3 3 3 2 2 2 1 2 5 11 10 5 3 4 3 0 3 9 11 6 3 2 4 12 13 13 10 4 5 6 5 3 2 4 2 2 6 11 10 5 4 8 8 4 2 3 3 4 4 5 7 8 3 2 2 1 3 5 3 6 12 9 3 6 4 5 5 3 4 3 3 3 2 2 2 2 2
17 17 14 12 12 12 13 12 8 6 6 5 5 5 3 1 0 2 0 4 8 12 11 4 3 6 2 4 11 10 3 3 4 5 11 11 9 7 5 6 8 6 4 4 4 2 4 10 11 5 5 5 2 4 6 6 5 4 4 4 5 5 5 3 2 3 2 4 3 2 5 10 5 4 4 4 4 3 1 2 2 2 3 3 2 2 2 2
15 14 14 13 13 14 15 11 5 5 10 8 8 7 2 1 2 3 1 5 4 6 9 7 7 9 6 4 9 10 5 5 6 8 13 12 6 4 6 9 8 5 7 9 8 6 6 8 6 6 8 6 4 4 7 5 4 6 5 5 7 3 2 5 1 3 2 2 2 1 5 9 4 3 4 3 3 3 3 2 2 1 2 2 2 1 2 3
18 14 13 14 14 13 14 10 4 7 13 11 13 14 4 3 4 4 1 4 5 3 4 7 7 8 9 7 10 14 8 5 4 8 16 14 6 3 6 8 6 6 8 13 12 10 6 1 1 8 9 9 6 5 8 6 5 7 7 8 8 5 7 7 1 2 2 2 2 2 7 8 6 6 4 4 4 4 4 4 4 3 3 3 3 2 2 2
21 18 16 17 18 16 14 10 7 10 14 12 17 20 12 5 3 6 3 3 5 3 1 5 5 7 11 9 12 12 4 4 3 5 17 15 7 6 4 3 4 8 11 10 9 10 5 3 5 8 8 9 8 6 9 8 6 6 8 12 12 10 8 5 2 1 4 4 3 3 6 4 4 6 5 4 5 5 4 5 5 5 5 5 5 4 3 2
22 21 20 21 21 19 14 8 8 12 13 14 20 19 15 13 6 2 1 3 6 3 4 5 6 9 12 10 10 8 1 5 1 5 15 14 6 5 3 3 1 5 8 7 4 5 2 4 5 6 7 9 8 7 8 8 6 5 4 8 12 10 6 5 5 4 4 3 1 1 6 4 2 4 5 5 5 5 5 5 6 5 5 5 5 4 4 4
25 24 24 24 24 23 15 5 9 13 8 11 17 17 13 12 10 5 1 4 7 4 6 3 3 7 10 7 9 9 3 3 5 4 8 8 6 2 3 7 4 2 4 4 3 2 4 5 4 5 6 7 7 6 7 10 7 3 1 2 7 8 7 8 8 6 4 2 0 3 4 5 4 2 4 5 5 5 7 7 7 7 6 6 5 5 5 5
30 27 26 26 27 28 20 10 12 14 10 6 6 12 15 12 10 5 2 4 4 4 5 1 1 3 5 3 4 4 0 2 5 3 2 2 4 1 4 9 7 6 5 5 7 2 3 7 8 9 7 6 6 2 7 13 7 0 2 2 4 4 5 7 6 5 2 1 4 6 4 4 6 3 4 4 5 7 9 10 10 9 9 8 7 7 6 6
33 31 30 29 28 31 27 18 14 12 14 12 6 7 13 13 8 2 0 4 2 4 3 3 4 3 4 5 2 2 1 2 1 1 3 3 2 2 3 4 5 7 4 3 5 1 2 2 4 7 7 6 3 3 3 10 5 3 5 6 7 5 4 4 4 3 2 3 8 7 9 5 5 4 4 3 5 8 9 10 10 11 10 9 9 9 7 6
35 33 32 32 30 31 28 21 19 16 14 16 13 7 13 10 4 3 4 5 2 3 2 3 4 3 9 11 3 1 2 2 2 3 3 2 3 3 0 2 4 5 2 3 2 1 2 1 2 2 3 2 5 6 3 1 3 7 7 6 7 5 4 3 1 1 2 6 6 5 9 7 5 4 6 4 2 3 8 10 10 11 11 11 9 9 9 7
37 35 35 36 34 34 25 15 20 22 16 15 13 14 14 3 0 6 8 3 1 2 3 3 2 5 14 13 5 4 3 2 4 7 5 4 4 3 4 4 3 3 2 3 3 1 1 2 1 1 1 3 6 5 4 3 2 4 4 5 5 3 2 2 2 2 5 6 2 1 3 6 6 4 4 3 2 2 7 10 13 15 13 12 10 9 9 8
39 37 37 38 37 36 25 14 21 24 16 16 18 14 7 2 3 8 6 1 1 4 5 4 4 8 12 8 3 6 5 3 6 7 6 6 6 8 7 7 7 5 4 7 5 1 2 4 2 1 0 3 6 6 4 2 2 3 4 7 6 3 3 4 3 3 6 3 2 2 1 4 7 6 3 3 4 3 3 4 11 17 15 13 12 10 9 8
42 40 39 40 39 38 28 19 23 24 19 22 18 7 3 5 9 12 9 3 1 1 3 4 4 7 10 7 4 6 3 2 7 5 2 4 6 8 5 4 6 3 2 6 6 3 3 2 3 4 2 4 9 8 5 5 6 7 8 8 7 5 4 5 4 2 4 1 2 1 1 3 4 5 3 2 4 3 2 1 5 13 15 14 13 11 9 8
43 42 41 43 42 38 30 23 24 26 25 21 11 5 7 8 10 11 12 8 1 3 3 4 6 6 7 5 3 7 3 2 8 6 3 5 6 8 7 6 7 2 2 4 5 6 6 3 6 9 4 7 13 8 3 7 8 7 4 3 5 4 4 4 3 3 2 2 2 1 2 4 3 1 2 3 4 3 2 2 1 6 10 10 10 9 9 9
42 44 43 42 41 38 34 29 28 31 27 15 7 8 11 11 9 8 11 8 3 2 3 4 7 7 6 2 1 5 3 2 7 6 5 7 7 8 9 9 10 6 4 5 3 4 6 4 3 3 0 9 12 3 3 7 6 3 1 1 4 3 2 0 1 0 2 1 2 3 3 3 2 2 2 2 2 2 2 1 3 6 8 9 9 9 9 9
38 40 38 37 38 39 38 33 33 36 25 10 7 10 11 12 6 5 8 8 5 6 8 4 4 5 6 3 3 6 3 1 7 6 5 5 5 6 5 5 11 10 7 6 3 3 4 2 2 2 1 4 4 1 2 2 3 4 3 5 3 1 2 2 0 2 1 4 3 4 4 3 1 2 2 3 1 3 3 3 6 8 9 10 9 9 9 9
32 31 28 30 36 40 40 36 37 36 20 9 11 11 10 10 6 5 7 6 6 10 10 5 5 7 8 5 6 9 5 3 7 7 5 4 4 7 7 4 9 14 11 4 2 3 3 1 2 1 1 1 3 0 3 3 1 5 5 5 3 1 1 1 3 1 2 6 3 4 7 5 4 3 2 4 5 6 7 6 7 8 10 11 11 10 10 9
28 23 19 28 39 41 41 41 39 28 10 6 14 14 9 7 5 5 4 4 7 10 9 8 7 7 9 8 7 11 10 6 8 7 6 6 5 8 12 7 7 14 13 4 0 3 3 2 1 1 1 2 1 2 4 1 1 1 2 2 2 3 4 3 3 2 3 6 3 4 6 6 7 5 3 7 10 10 10 9 9 12 13 13 12 11 11 10
23 14 9 24 41 42 43 44 32 15 3 6 13 12 8 6 3 2 3 3 5 9 11 11 7 5 7 8 7 10 11 8 9 8 6 6 5 7 13 8 6 13 14 8 3 1 2 3 2 1 0 2 2 5 7 6 2 1 1 2 0 3 3 3 3 1 3 5 3 3 3 4 7 7 8 12 12 12 13 10 12 15 16 14 12 12 12 12
14 5 3 21 41 43 46 38 18 6 5 8 10 8 4 4 3 1 2 3 3 4 8 10 10 8 6 6 5 7 8 7 8 7 5 7 6 6 10 9 6 8 9 7 4 1 2 3 3 2 1 3 5 6 7 8 7 5 6 6 4 2 0 1 2 1 1 4 3 4 4 3 4 3 7 9 8 11 14 13 13 14 15 14 12 12 12 11
7 4 2 24 44 47 41 24 7 7 8 8 11 9 4 2 2 2 2 1 1 1 1 3 8 7 5 6 4 4 6 6 7 6 4 7 7 5 9 11 8 9 7 4 5 5 3 3 3 4 4 5 3 1 1 2 3 5 7 9 8 6 4 4 5 2 0 3 2 3 6 3 3 1 1 1 0 5 10 11 10 11 14 14 13 13 12 11
5 4 4 27 49 45 27 11 7 8 7 10 11 8 4 2 1 2 2 1 1 1 0 1 2 4 4 5 4 5 7 6 8 8 5 9 12 6 7 11 10 12 11 5 4 3 2 2 4 3 3 3 1 3 2 3 2 1 3 4 5 6 6 7 6 3 2 2 1 0 5 3 2 1 1 1 1 2 3 6 7 8 11 13 13 12 12 10
3 2 5 28 51 42 17 6 9 9 8 10 8 5 5 5 5 4 4 5 3 2 2 2 1 3 3 2 3 5 8 6 8 12 8 8 9 3 1 9 13 14 10 4 4 3 1 2 4 3 1 1 2 0 0 2 1 2 3 2 4 4 3 3 2 2 3 5 4 2 6 3 2 1 1 0 1 2 3 5 7 7 8 10 11 11 11 10
1 1 1 18 37 32 13 6 10 11 10 8 8 11 10 6 7 9 8 7 5 2 3 3 2 2 2 2 3 5 7 6 7 10 5 3 3 3 4 5 12 12 8 4 6 8 6 5 6 5 3 3 2 4 4 3 4 5 3 4 5 5 4 2 2 2 4 6 8 6 8 3 3 1 0 0 1 1 3 5 6 6 6 8 10 10 10 9
1 1 1 6 14 13 7 6 10 11 10 11 13 16 13 7 8 12 12 9 5 3 3 2 2 3 2 2 2 3 6 5 3 4 2 1 1 3 4 2 3 6 3 3 2 8 7 6 9 10 9 10 9 7 6 5 4 3 2 5 8 8 9 5 2 4 6 5 9 9 7 1 3 1 1 2 1 2 3 4 6 5 5 7 9 9 9 9
2 1 1 2 3 3 2 2 7 10 11 13 12 12 15 13 7 7 11 11 9 7 4 2 1 3 2 4 3 3 5 3 1 2 3 3 1 2 2 2 1 1 4 6 2 7 3 3 9 12 11 10 7 3 5 8 7 7 7 9 9 10 11 8 3 6 6 3 6 10 5 2 3 3 4 5 4 3 4 5 6 6 6 7 7 8 8 8
2 2 3 2 1 3 2 2 6 10 11 12 8 7 16 17 7 4 9 10 9 10 6 1 3 5 4 7 7 4 4 3 2 3 4 3 1 2 2 1 1 2 6 5 2 4 2 5 10 11 8 3 2 4 8 12 12 13 12 11 11 11 12 12 10 8 6 4 9 8 7 6 9 8 7 7 5 5 5 6 6 6 7 7 6 7 9 9
2 2 3 1 0 4 4 3 6 8 10 12 6 3 12 18 13 9 8 4 5 10 8 3 8 13 12 10 8 5 5 5 5 5 4 3 3 1 1 2 1 2 4 2 1 2 3 5 5 6 5 1 4 4 7 9 8 9 12 13 13 13 14 16 16 11 8 8 13 5 8 12 12 8 9 8 7 7 7 5 5 4 5 6 7 8 9 11
1 1 0 1 0 2 2 2 5 5 7 7 4 3 9 15 16 10 4 3 3 7 10 9 12 15 15 12 9 7 8 7 7 8 6 4 4 3 1 1 1 1 2 1 1 2 3 3 2 5 5 1 2 1 3 5 5 5 10 12 12 14 15 14 14 12 11 13 10 1 5 13 8 6 9 7 5 4 3 3 4 4 5 7 8 9 10 11
1 1 1 2 1 1 1 2 4 5 4 3 2 4 5 9 13 7 3 4 5 5 8 12 11 9 9 11 11 10 8 5 4 6 7 7 5 4 4 3 1 1 2 1 1 1 2 3 4 4 5 3 2 1 1 2 4 5 10 13 11 12 13 13 11 10 9 10 7 3 8 12 4 6 5 3 3 4 4 5 6 5 6 8 8 9 10 11
1 1 2 3 2 2 1 1 3 3 3 3 3 5 5 7 8 4 1 2 2 3 4 7 7 5 4 4 6 7 6 6 6 4 4 6 4 2 2 2 3 4 2 1 2 1 2 2 3 3 7 5 2 4 4 2 1 5 14 14 11 11 11 12 11 9 9 10 10 9 12 10 4 6 4 3 5 6 6 6 5 5 6 8 9 9 10 11
2 2 2 2 2 3 3 2 3 4 4 4 5 5 5 6 5 5 2 2 1 1 1 5 7 4 3 4 5 6 7 8 6 4 2 3 3 3 2 3 4 4 4 3 2 1 3 3 3 5 7 2 1 3 6 5 2 7 10 10 15 13 12 11 10 11 12 11 10 10 11 8 3 6 6 6 7 8 7 7 6 5 6 8 8 9 9 9
Wind_Direction
77 49 16 349 269 238 247 240 237 241 243 243 238 240 245 251 260 255 256 260 264 280 293 314 327 333 338 338 338 340 339 333 328 325 316 250 165 147 135 118 124 119 111 113 125 135 105 78 57 60 99 71 7 338 46 31 341 258 238 218 161 156 148 174 167 155 93 102 121 108 1 318 333 332 3 227 196 244 289 299 78 91 85 78 63 17 5 14
105 90 355 310 299 282 271 259 248 248 250 252 254 253 252 254 258 262 261 265 277 288 306 318 324 331 336 337 339 340 335 328 326 346 356 178 160 152 140 115 124 117 110 125 130 147 158 99 70 55 80 76 355 330 217 352 331 306 152 316 143 126 95 155 140 137 160 66 85 111 157 274 330 342 341 317 279 305 310 11 108 119 99 64 41 24 22 24
147 126 183 263 294 296 295 286 266 257 253 254 259 261 259 261 264 271 273 277 288 298 312 315 320 329 334 339 340 341 333 321 312 47 32 149 154 149 138 123 125 114 108 138 140 129 126 117 100 59 62 72 36 337 222 5 332 318 235 299 99 113 115 189 184 164 175 31 322 121 145 255 323 311 312 323 309 308 32 40 69 114 34 27 27 20 19 26
250 242 203 245 276 291 302 295 275 263 257 258 261 261 259 262 269 276 283 289 292 296 308 311 320 331 339 341 338 342 330 304 163 63 74 139 152 149 141 129 138 118 93 135 130 112 113 106 82 50 105 104 57 297 21 20 343 161 286 17 89 133 175 163 198 195 159 240 288 52 197 242 93 297 292 307 302 303 86 33 6 4 13 19 22 17 18 27
241 268 266 261 272 284 291 283 272 264 259 259 260 259 255 261 272 275 279 289 296 298 309 311 324 334 337 340 339 342 323 292 133 157 145 146 162 154 145 145 159 134 104 141 124 112 111 96 83 67 49 109 99 212 78 28 348 168 65 37 96 174 179 130 168 165 140 189 207 212 248 316 112 241 254 259 287 0 45 10 14 28 33 28 17 15 24 30
237 260 270 274 278 278 279 278 268 261 262 262 259 254 250 259 270 271 270 278 291 298 305 309 322 329 332 338 335 334 311 293 154 191 172 165 179 165 156 158 166 145 125 144 132 123 104 84 149 135 76 108 83 40 74 47 319 273 109 72 143 195 280 127 153 168 156 181 205 217 329 103 215 239 208 247 324 37 34 18 39 51 47 37 30 30 32 32
239 254 266 275 277 274 276 275 268 262 263 264 259 255 253 259 267 268 265 270 287 294 301 307 312 317 327 335 339 10 309 277 215 203 196 192 193 185 173 164 172 158 144 149 143 139 126 162 185 152 146 120 138 103 83 91 254 286 114 132 169 198 255 174 144 174 183 218 223 125 210 228 240 233 131 104 63 66 64 50 55 63 58 49 44 38 34 33
238 248 263 275 278 276 271 268 271 265 257 261 262 255 257 262 268 274 268 271 286 290 297 300 302 308 297 233 321 354 254 241 219 209 211 212 203 195 181 173 182 168 170 175 163 158 159 185 161 180 214 78 166 138 115 235 176 249 288 111 142 208 248 244 229 222 212 237 216 177 232 238 243 159 121 91 91 93 81 62 56 67 61 51 44 37 34 32
237 241 251 265 273 272 271 267 267 261 252 254 259 254 257 265 269 275 276 283 290 293 299 294 294 272 213 138 91 286 247 185 206 213 213 211 206 195 184 184 191 186 183 175 170 170 177 198 163 199 145 91 187 136 147 251 179 174 152 148 239 252 277 263 251 242 220 228 174 209 247 146 120 149 117 87 106 113 100 71 49 54 53 45 39 33 30 28
237 238 245 261 269 269 273 269 264 262 251 246 253 252 254 263 270 276 280 290 292 297 299 281 279 222 193 155 176 273 234 148 186 194 197 199 195 188 191 194 192 198 184 160 167 165 180 190 146 170 103 100 173 128 171 255 52 110 140 263 259 281 292 253 256 259 225 218 193 227 256 107 126 228 136 94 118 151 123 77 51 54 55 45 42 36 29 29
237 236 243 256 271 273 270 270 269 262 250 248 251 243 247 258 267 279 280 290 297 297 290 270 251 207 168 171 228 258 197 172 175 163 177 190 191 187 193 192 186 197 185 164 175 171 161 156 140 142 163 134 152 138 201 177 82 111 306 273 249 260 264 249 270 283 260 218 197 214 178 123 166 222 84 76 125 187 126 84 62 61 63 53 50 46 37 33
237 236 242 252 273 279 271 275 274 265 258 252 249 237 246 255 264 279 282 289 294 285 272 246 225 188 148 193 240 235 194 186 182 171 178 184 187 180 180 185 181 191 189 171 177 176 149 154 151 121 76 160 164 148 150 129 67 117 306 291 278 268 254 281 336 298 281 158 154 191 168 151 168 137 84 68 154 174 131 94 74 64 61 53 49 47 43 33
237 239 241 239 259 272 276 282 273 267 267 253 253 247 251 260 269 281 283 287 287 276 259 229 201 170 166 249 229 217 211 196 182 176 176 173 173 170 173 178 171 174 181 169 166 163 151 160 155 85 92 176 159 114 132 124 302 215 179 308 299 282 230 109 350 285 264 130 141 222 225 158 148 125 68 48 194 195 161 92 71 61 56 48 46 45 45 37
233 238 238 220 237 260 276 286 278 267 264 252 252 258 264 268 269 280 277 280 278 254 233 202 184 163 189 256 219 214 211 202 193 183 176 170 159 149 154 158 159 160 156 154 154 150 150 149 127 103 92 347 108 138 143 128 286 275 254 238 284 289 179 124 10 304 263 137 174 235 272 167 152 139 35 24 210 212 184 85 66 55 57 44 46 48 46 44
233 236 228 207 236 254 265 277 280 271 259 247 246 259 265 250 251 282 246 254 270 212 166 162 172 158 235 254 237 220 205 202 201 196 190 177 163 141 143 145 135 134 131 132 138 136 138 138 129 119 96 22 151 164 186 192 134 1 274 236 186 265 224 125 77 333 292 104 172 231 267 156 154 141 32 15 224 193 155 92 74 57 57 44 48 50 48 54
238 235 216 198 234 246 257 274 290 289 263 241 246 274 262 209 197 183 184 163 137 139 130 151 162 161 277 242 193 216 200 202 203 202 195 182 179 155 139 131 116 113 114 111 117 118 114 115 107 51 108 156 179 183 222 246 221 162 250 258 227 231 264 75 107 28 330 163 151 237 273 269 144 131 57 40 91 159 137 105 92 71 61 53 48 47 45 53
238 238 218 206 228 240 257 279 312 308 270 198 354 321 258 160 143 144 134 129 122 106 111 143 137 152 260 204 217 226 186 192 193 191 187 180 180 157 137 118 104 110 109 106 113 112 80 70 107 234 121 148 178 181 223 246 239 193 206 254 257 234 259 280 148 105 355 238 223 231 266 271 133 128 87 75 109 157 133 117 109 93 78 73 58 61 54 46
233 233 230 225 225 237 258 277 317 319 263 119 354 290 187 141 135 133 138 132 109 88 92 131 129 224 237 187 195 171 131 164 169 169 175 167 163 156 141 120 123 127 121 112 117 121 27 48 209 209 152 175 182 184 215 240 254 213 190 233 252 230 238 252 226 127 76 237 238 207 247 257 158 136 116 86 126 161 128 122 126 114 114 110 93 90 70 56
228 225 234 231 217 225 250 267 310 319 172 147 196 137 108 113 132 150 157 146 139 161 193 171 173 228 249 167 125 100 108 136 150 157 159 152 154 150 128 121 129 137 144 161 176 151 161 148 168 214 200 198 192 200 220 236 328 201 187 240 256 253 251 243 169 76 5 256 247 239 252 262 224 153 137 123 127 143 131 133 145 139 141 136 124 110 85 72
226 223 230 230 210 224 245 254 294 297 194 201 155 137 126 152 196 201 175 205 223 234 355 180 192 214 41 124 124 122 119 121 132 160 158 155 151 135 106 115 120 141 171 177 158 142 226 195 202 221 213 201 199 207 222 79 75 153 193 237 248 257 267 257 119 98 14 261 252 245 256 265 255 159 130 147 148 150 159 162 166 160 157 148 134 115 94 77
224 218 220 220 209 226 239 240 269 269 203 194 186 180 204 197 214 231 184 230 234 242 268 213 216 267 345 133 151 147 133 116 101 161 165 163 158 154 153 158 162 176 183 118 109 118 221 218 224 225 204 182 203 204 196 159 172 210 234 240 246 245 259 272 115 117 159 243 249 226 249 259 252 141 117 162 175 170 178 181 178 163 153 142 129 118 92 83
224 215 208 211 217 232 235 231 248 244 204 198 214 230 280 289 78 55 345 264 240 230 237 231 247 260 235 146 172 168 160 153 145 175 174 166 177 192 169 168 191 181 140 128 138 160 206 230 232 198 101 97 131 181 195 216 218 220 232 242 253 243 259 272 133 126 175 230 248 193 249 260 242 117 118 160 174 163 160 185 176 159 161 153 130 117 112 115
224 214 202 204 216 232 233 226 236 215 199 202 215 218 245 35 82 61 254 277 274 215 212 206 214 223 199 193 192 182 196 186 168 186 180 170 182 197 161 179 197 153 149 180 191 194 203 240 232 137 126 147 138 163 187 208 228 221 219 233 246 221 232 256 161 112 174 232 297 281 269 266 227 147 140 137 141 135 134 151 139 149 158 136 129 119 129 135
221 214 208 202 207 220 223 222 225 207 204 214 228 220 194 83 63 31 312 274 267 213 194 200 204 210 199 192 183 184 205 205 176 179 178 175 159 147 177 183 169 153 186 199 202 212 206 302 145 145 160 182 172 164 182 205 227 219 216 229 244 225 223 247 91 92 211 211 237 265 279 266 220 204 186 136 151 157 156 168 160 160 158 142 150 148 131 127
220 216 214 209 212 213 210 212 207 205 209 222 237 230 219 229 357 6 328 282 257 220 182 198 193 209 196 172 167 175 197 212 205 169 175 179 155 142 174 162 173 197 195 190 206 231 220 108 126 145 163 190 190 188 193 208 231 227 216 222 240 243 230 225 132 179 259 236 190 217 263 255 177 209 205 150 171 178 173 192 184 167 168 173 167 156 147 137
222 220 216 216 219 209 197 205 199 198 209 225 238 233 222 230 251 324 308 285 264 203 146 182 183 187 177 159 156 144 153 221 191 125 168 182 169 143 168 145 200 223 178 161 211 249 212 132 140 148 163 182 195 218 196 191 230 248 217 215 230 241 229 196 179 198 252 266 103 201 255 254 173 196 178 159 187 186 182 201 195 181 178 179 171 160 160 154
221 221 219 219 218 204 188 185 184 183 201 235 240 229 218 220 216 217 236 278 265 172 137 182 189 169 162 158 156 144 180 187 112 120 164 179 177 136 202 177 164 214 148 143 220 233 152 152 171 172 169 177 200 227 184 178 220 242 70 190 201 206 207 196 192 206 245 320 126 205 248 274 254 192 133 156 190 197 202 208 198 190 186 178 175 170 168 167
224 221 220 219 218 210 198 177 165 178 204 232 243 222 213 206 196 196 211 252 267 108 121 167 101 117 124 138 152 137 279 102 126 172 97 122 173 137 222 198 174 166 154 183 215 228 136 173 190 181 181 200 208 219 159 176 212 286 72 104 143 173 190 181 192 214 251 300 235 204 178 258 255 192 124 161 208 220 206 201 196 187 184 179 178 179 174 170
228 224 220 218 217 215 211 201 183 191 213 218 248 234 198 191 191 168 194 234 232 91 103 136 125 87 107 137 137 79 70 34 90 167 94 112 125 58 227 205 148 146 145 234 228 4 56 204 212 183 191 207 175 44 146 185 198 129 121 103 93 86 101 136 199 198 163 239 243 204 175 227 261 192 165 178 232 231 197 190 192 179 179 182 178 180 177 168
231 227 223 218 210 204 205 208 210 213 216 221 238 202 162 172 187 162 199 226 197 100 92 136 148 152 147 151 167 138 122 42 75 118 118 135 89 42 3 93 95 136 137 299 274 37 69 26 315 207 204 167 105 60 30 122 128 143 140 109 98 89 91 106 163 152 213 237 237 195 180 217 259 206 196 196 230 207 172 174 177 170 178 182 180 182 178 172
230 228 225 217 205 197 195 197 205 209 216 218 199 155 146 154 316 186 205 239 8 130 138 138 137 156 162 162 171 174 145 83 151 155 148 150 135 123 151 148 124 133 181 243 235 150 131 163 197 183 90 106 111 86 48 52 122 161 156 136 129 117 133 156 139 176 242 236 187 78 177 218 237 222 195 174 117 154 172 174 171 173 180 180 181 183 178 175
229 227 224 217 206 200 198 192 193 199 205 188 164 144 143 159 220 219 216 84 122 188 158 147 173 178 176 173 157 156 149 143 172 172 157 161 173 173 185 187 166 164 216 215 197 156 203 199 157 98 238 181 149 119 84 92 195 207 166 165 180 176 174 210 195 197 242 238 71 31 192 222 240 246 235 168 157 175 181 173 171 173 177 177 179 180 176 174
229 223 219 214 206 199 197 195 192 192 183 168 160 149 152 180 214 220 209 186 192 173 111 115 152 171 168 166 159 155 140 145 169 175 154 161 183 190 212 223 183 193 227 187 182 180 202 205 155 168 203 203 186 171 160 170 187 194 179 179 192 180 187 215 196 226 259 220 59 6 204 223 248 256 261 156 131 118 73 47 173 171 173 175 174 174 174 173
230 220 213 209 204 201 198 195 194 187 175 167 166 165 168 200 224 209 204 217 241 48 54 103 117 137 165 174 170 161 152 161 165 165 161 167 188 197 208 222 210 218 66 156 187 191 211 245 179 179 165 172 192 203 163 147 166 190 186 191 205 193 210 221 200 231 260 115 104 109 191 207 198 161 359 37 63 59 68 44 122 163 163 164 165 170 174 177
230 216 209 202 201 205 202 198 196 187 176 168 174 174 183 214 221 202 205 205 178 77 70 107 120 143 186 211 165 183 202 202 163 161 179 180 195 198 192 200 198 187 155 178 193 180 220 270 150 152 68 169 183 205 81 125 157 183 72 197 233 227 187 187 315 59 62 66 183 182 229 246 199 126 80 47 44 72 95 112 163 167 159 160 169 177 181 183
223 210 204 195 196 202 199 195 193 184 175 166 186 190 203 216 200 181 195 183 172 139 120 123 136 164 195 186 188 206 235 125 160 175 200 197 226 212 189 194 189 191 192 180 172 161 201 274 86 75 349 169 179 158 116 153 165 149 174 198 206 353 98 128 191 77 71 266 222 170 227 254 197 201 135 117 158 158 158 178 183 180 171 174 185 188 188 185
213 201 199 193 194 196 191 190 187 181 176 179 195 204 215 215 193 172 180 163 150 143 141 181 192 175 187 188 193 192 180 147 169 188 189 181 227 201 189 223 193 198 215 203 194 207 185 179 107 115 150 97 341 29 96 357 56 142 186 189 136 21 341 191 237 156 180 252 249 178 222 217 185 208 135 149 193 193 188 186 183 184 183 190 197 192 188 184
205 194 200 199 195 191 187 186 182 177 180 195 204 218 218 210 200 180 174 133 139 155 179 212 193 174 187 190 184 178 180 175 169 187 184 179 220 181 174 203 192 195 212 207 322 232 197 194 120 80 146 106 341 215 142 43 333 121 200 164 118 223 204 174 223 225 200 240 255 190 218 226 204 198 164 186 202 197 185 179 184 192 194 198 198 190 186 182
198 187 217 200 191 187 183 181 176 172 205 203 207 222 218 209 208 157 161 163 155 172 199 212 201 191 194 184 162 166 186 185 159 176 194 187 212 178 172 187 188 195 198 181 181 205 187 226 189 109 117 122 156 212 189 176 166 26 175 160 277 265 215 171 188 210 214 237 256 210 206 216 207 196 184 195 200 186 175 178 195 200 199 197 192 186 186 186
189 191 240 183 183 182 177 173 170 176 208 210 215 223 216 211 210 151 203 210 191 189 207 213 208 205 194 177 161 161 188 195 168 182 206 183 187 190 185 186 172 181 182 172 196 163 133 232 203 119 130 176 182 208 202 183 171 173 180 177 186 197 30 253 214 148 226 238 241 254 258 207 178 192 192 194 195 177 174 184 197 200 198 194 190 187 186 186
175 233 188 169 176 175 169 166 177 195 199 219 229 234 234 217 182 196 242 258 264 263 256 226 214 208 183 173 180 159 168 188 184 194 219 194 202 216 193 186 163 142 137 156 212 198 169 200 172 147 182 198 199 319 308 237 187 186 191 185 183 172 153 205 218 167 194 253 227 255 275 234 146 135 206 179 231 185 186 192 194 193 192 192 194 192 188 187
174 238 165 168 173 169 162 171 190 186 204 217 220 223 208 216 230 187 186 201 236 234 12 305 235 206 186 178 174 159 166 180 187 195 217 210 213 222 187 178 157 147 150 159 195 180 112 139 150 144 187 209 319 9 334 303 318 295 244 202 187 186 178 201 220 182 168 228 86 55 277 275 132 149 162 130 333 303 232 209 199 196 192 193 197 193 191 192
189 216 149 168 171 167 164 191 180 185 217 217 221 225 193 208 229 207 204 205 193 160 182 228 226 203 213 194 149 168 182 189 192 198 213 216 213 243 192 166 152 154 164 153 148 152 103 158 163 137 107 70 14 36 231 331 309 236 246 207 194 205 191 210 219 142 189 202 148 188 249 240 131 152 138 91 341 324 266 216 198 198 195 193 194 191 191 190
161 126 124 178 178 174 172 184 180 196 211 202 218 226 215 217 215 212 221 212 192 164 174 200 211 199 209 150 144 178 185 190 208 206 210 221 210 5 359 177 162 166 179 170 164 173 177 181 169 158 171 182 193 205 209 211 210 223 215 179 195 178 122 85 92 126 241 206 167 210 250 209 125 126 102 47 343 293 255 220 204 200 197 191 189 192 192 182
114 108 357 210 199 193 194 190 181 192 201 194 208 217 216 221 212 208 214 211 203 187 176 202 199 145 128 129 125 192 190 183 206 206 187 265 249 13 3 303 193 185 224 330 177 172 179 186 175 177 190 195 198 206 202 178 176 213 186 175 197 178 158 164 163 197 229 178 165 211 242 185 105 76 270 244 244 264 236 209 216 217 201 194 190 191 188 178
146 190 184 228 248 238 260 236 182 186 195 196 204 210 210 217 219 199 205 211 212 205 196 201 148 121 136 162 164 204 204 188 119 160 186 202 231 351 345 338 337 265 325 326 210 166 166 208 200 204 208 199 191 170 135 131 153 194 190 177 191 189 179 182 194 211 204 144 200 217 207 213 202 173 229 233 200 228 231 195 210 220 206 199 192 187 185 185
171 184 175 181 241 218 252 284 196 192 192 192 196 201 206 214 218 180 199 210 203 200 209 206 176 194 192 183 194 210 191 171 152 168 186 182 142 333 308 323 56 352 342 323 205 140 146 212 216 223 232 219 101 108 144 157 178 197 191 183 188 183 178 189 210 210 148 138 241 215 149 207 223 179 203 225 188 204 222 192 198 210 198 189 179 178 186 193
205 178 175 170 196 208 224 228 200 193 186 186 191 202 205 211 213 202 199 200 186 194 204 218 206 210 208 194 197 204 185 185 197 190 172 150 151 157 334 329 282 348 5 340 334 83 164 208 218 212 223 56 71 103 151 163 179 195 192 188 185 176 178 196 213 208 164 204 249 228 158 215 230 189 196 215 200 204 207 187 185 186 173 170 172 182 192 198
158 102 134 26 39 212 219 176 173 174 171 170 173 200 204 208 212 208 173 143 194 198 199 212 214 212 212 205 197 199 196 195 206 202 179 154 161 157 143 256 249 1 50 113 37 50 170 197 168 182 200 150 90 102 133 152 171 198 204 199 185 180 187 199 210 207 205 228 249 155 195 233 233 180 194 209 197 183 162 159 172 172 171 170 177 192 202 204
161 150 152 97 76 281 358 107 152 160 150 138 168 188 198 211 212 204 138 174 199 197 206 215 206 189 194 198 198 204 198 171 179 196 175 164 178 182 179 185 169 87 57 105 122 5 227 189 131 155 193 195 186 169 105 164 188 212 232 222 190 176 190 206 216 205 206 235 239 206 246 253 215 145 168 165 130 130 149 176 183 178 172 168 179 199 208 209
111 81 130 133 147 178 168 118 137 156 169 180 185 172 180 214 207 164 70 261 194 157 191 192 164 131 128 164 180 182 152 109 109 136 146 159 174 173 164 158 150 154 146 138 151 175 221 187 114 160 198 207 204 171 145 105 115 255 254 230 182 172 192 206 217 202 190 218 229 229 245 249 183 136 138 133 151 173 183 182 181 178 169 171 188 203 209 211
118 59 84 106 140 172 171 140 148 174 193 193 184 169 171 193 181 144 136 333 26 90 149 140 134 118 120 162 180 165 137 122 123 118 99 119 111 75 101 138 149 153 153 155 142 152 184 168 139 180 191 201 312 183 145 112 142 257 255 194 169 190 208 207 218 216 203 208 218 224 236 238 166 145 164 181 189 196 195 185 183 181 171 182 199 204 208 212
Height
830 830 830 830 830 830 830 830 830 831 831 831 831 831 831 831 831 832 832 832 832 832 832 832 832 832 831 831 830 829 828 827 827 826 825 825 825 826 826 826 827 826 827 827 827 827 827 828 828 828 827 828 831 832 833 834 834 833 836 838 841 845 845 843 843 844 843 844 845 847 848 847 845 842 841 842 842 842 840 838 839 841 845 847 849 849 848 845
830 830 830 830 830 830 830 830 831 831 831 831 831 831 831 831 832 832 832 832 832 832 832 832 832 832 831 831 830 829 828 827 826 826 825 825 825 826 826 826 827 827 827 827 827 828 827 828 828 828 828 830 834 833 833 835 834 836 838 839 841 843 842 841 841 842 843 844 844 847 850 848 845 844 842 841 840 840 839 837 838 841 844 847 849 849 848 846
829 829 830 830 830 830 830 830 830 831 831 831 831 831 831 831 832 832 832 832 832 832 832 832 832 831 831 831 829 829 828 826 826 827 825 825 825 826 827 827 827 827 827 828 828 828 828 828 828 829 830 832 835 835 834 836 836 838 839 838 840 841 842 843 842 843 843 845 845 846 850 849 845 845 843 842 840 838 840 841 841 842 844 848 849 850 848 847
829 829 829 830 830 830 830 830 830 830 830 831 831 831 831 831 831 832 832 832 832 832 832 832 832 831 831 830 830 829 826 827 828 827 826 826 826 827 827 827 828 828 828 828 828 828 828 829 829 830 831 834 837 836 836 838 838 839 839 837 840 843 842 843 843 843 845 846 846 847 850 847 845 846 844 844 841 837 841 847 848 848 849 851 851 851 850 848
829 829 829 829 829 829 830 830 830 830 830 830 831 831 831 831 831 832 832 832 832 832 832 832 831 831 831 830 830 828 827 832 830 826 827 827 827 827 827 828 828 828 828 828 828 829 829 829 829 831 832 835 837 836 838 840 840 839 840 840 842 845 842 842 844 846 848 848 848 849 847 846 846 846 844 844 843 842 848 853 854 854 854 854 853 852 851 849
828 828 829 829 829 829 829 829 830 830 830 830 830 831 831 831 831 831 832 832 832 832 832 831 831 831 830 830 830 828 830 835 829 825 827 827 827 827 827 828 828 828 828 828 829 829 830 830 830 833 834 836 838 838 840 842 841 839 841 844 844 845 843 842 845 847 849 848 848 847 846 846 846 845 845 846 848 852 857 857 856 856 856 855 854 853 851 850
827 828 828 828 828 828 829 829 829 829 830 830 830 830 831 831 831 831 831 831 832 831 831 831 831 831 830 830 830 829 831 831 825 825 827 826 827 827 827 828 828 828 829 829 829 829 830 831 832 835 835 837 840 840 842 843 841 839 840 844 846 848 845 842 845 848 848 847 845 847 847 846 844 845 846 850 855 858 859 858 858 857 857 856 855 854 853 852
827 827 827 827 828 828 828 828 829 829 829 829 830 830 830 831 831 831 831 831 831 831 831 830 830 830 830 830 830 831 831 827 824 826 826 826 827 827 827 828 828 829 829 829 829 829 831 832 833 835 835 838 839 840 844 842 840 841 841 843 846 848 844 842 846 846 847 846 845 847 846 843 842 843 847 853 857 859 859 859 859 857 857 856 855 855 855 854
826 827 827 827 827 827 828 828 828 828 828 829 829 829 830 830 831 830 830 830 830 830 830 830 830 829 830 829 830 832 829 825 824 825 825 826 826 826 827 828 828 829 829 829 830 829 831 832 834 834 835 839 839 840 844 841 840 842 842 843 844 844 842 842 843 841 843 844 845 845 842 841 845 844 848 856 858 858 860 859 858 857 856 856 856 857 856 855
826 826 827 827 827 827 827 827 828 828 828 829 829 829 830 830 830 830 830 830 830 830 829 829 829 829 830 829 831 832 826 823 825 824 825 825 825 826 827 827 828 828 829 829 829 830 830 831 832 832 833 837 839 842 844 842 842 843 843 843 842 842 842 842 840 840 842 843 843 842 839 843 846 844 846 855 858 858 858 858 859 858 858 859 858 859 858 857
825 826 826 827 827 827 827 827 827 827 827 828 828 828 829 829 829 829 829 829 829 829 829 829 828 829 829 828 831 830 824 824 825 824 825 825 825 826 826 827 828 828 829 829 830 830 830 830 831 832 834 836 839 844 845 843 843 845 845 843 841 841 840 840 840 841 841 840 842 841 841 845 845 844 848 855 858 858 857 858 859 859 860 860 860 860 860 859
824 825 826 827 827 827 827 827 827 827 827 827 827 827 828 828 828 828 828 828 828 828 828 828 828 828 828 829 828 825 823 824 824 824 825 825 825 826 826 827 827 828 828 829 830 829 830 831 831 833 835 836 839 844 844 844 846 846 845 842 839 837 837 839 840 842 841 840 842 841 842 845 845 847 852 856 857 857 856 857 859 860 860 860 860 860 860 860
824 824 825 826 827 827 827 827 826 826 826 826 826 826 827 826 827 827 827 827 827 827 827 827 827 828 829 828 824 823 823 824 824 824 825 825 826 826 826 827 827 828 828 828 829 830 831 831 831 834 836 836 840 844 843 845 847 846 846 845 841 836 836 840 841 841 840 840 843 841 839 841 845 849 853 856 857 856 855 856 858 859 860 861 861 860 860 861
823 823 824 825 827 827 827 826 826 825 825 825 825 826 826 826 826 826 826 826 826 827 827 827 827 828 829 826 822 822 823 823 824 824 824 825 825 826 827 827 828 828 828 828 829 830 831 831 832 834 837 839 841 843 843 845 846 845 846 847 846 842 836 838 843 841 837 839 841 841 837 836 843 849 852 856 856 854 853 855 859 859 861 861 861 861 860 861
821 822 823 824 826 827 826 826 825 825 824 824 824 825 825 825 825 825 826 825 825 826 826 827 827 827 829 825 821 822 822 823 823 823 824 825 825 826 827 827 828 828 828 829 829 831 832 832 833 835 840 843 841 843 844 844 845 846 847 846 847 846 837 836 844 844 839 838 838 839 837 833 840 848 853 857 855 853 854 857 860 860 862 862 861 862 861 861
820 821 822 823 825 825 825 825 825 824 824 824 824 824 824 824 825 825 825 825 825 826 826 827 827 828 828 824 821 821 822 822 822 823 824 824 825 826 827 828 828 829 829 830 830 832 832 833 838 841 842 842 842 843 845 847 846 847 848 844 844 847 840 837 843 845 842 840 836 837 836 831 838 849 855 857 856 853 855 858 861 862 862 862 862 862 861 861
819 819 820 822 823 824 825 824 824 823 823 823 824 824 824 824 824 825 825 825 825 825 826 826 826 827 826 822 821 820 819 820 820 822 823 824 825 825 827 828 829 830 830 831 832 832 833 836 842 843 841 843 843 843 849 852 846 846 851 847 844 847 844 839 840 843 844 840 836 837 836 831 838 850 854 857 857 854 855 858 861 862 862 863 863 862 862 861
817 818 819 821 822 823 824 824 824 823 823 823 824 824 824 824 824 825 825 825 825 826 827 826 827 830 825 819 819 818 817 819 820 821 823 824 825 826 826 828 829 830 831 833 833 834 835 838 842 841 842 846 843 843 850 847 837 840 848 846 844 846 846 843 839 840 842 839 836 839 838 831 837 850 854 856 858 854 855 859 860 862 863 863 863 862 862 862
816 817 818 819 820 822 822 823 823 823 823 823 823 824 824 824 825 825 824 825 824 823 823 822 822 825 822 816 816 817 818 819 820 821 823 824 825 826 826 828 829 830 832 835 835 836 837 839 843 843 842 842 839 837 837 834 832 837 841 842 842 842 841 840 840 842 844 841 837 837 836 830 832 846 854 856 857 856 857 860 861 862 862 862 863 863 863 862
814 816 817 818 819 820 822 822 823 823 823 823 824 824 824 824 824 823 824 824 818 814 815 814 813 815 815 815 816 818 819 820 821 822 823 823 824 826 828 829 830 832 833 835 836 838 839 840 841 836 831 831 832 830 830 834 837 840 843 844 844 843 838 835 841 846 846 843 838 835 836 831 829 840 852 856 856 856 857 858 860 861 862 862 863 863 863 863
812 814 815 817 818 819 820 821 823 823 823 823 824 823 820 820 821 821 820 818 813 811 812 812 812 812 813 814 815 816 817 820 822 822 823 823 824 825 828 830 832 834 836 837 838 840 841 841 833 825 824 827 829 830 834 839 841 843 844 844 845 844 839 835 842 848 849 846 840 839 842 834 829 840 852 856 855 855 856 857 859 860 862 863 863 864 864 864
811 812 813 816 817 818 819 820 822 822 823 823 823 823 820 818 819 818 818 816 811 809 811 812 814 813 812 814 814 814 815 818 822 822 822 823 823 824 826 829 830 832 838 839 838 842 844 837 825 823 828 832 835 837 838 841 842 844 844 846 846 842 839 838 844 850 850 847 840 841 844 831 829 843 853 855 855 857 860 859 860 861 862 863 863 864 864 864
809 810 812 813 815 817 818 819 820 821 822 822 822 821 820 819 819 819 820 818 812 807 808 811 812 811 812 813 812 814 814 814 817 819 820 821 823 824 825 828 829 832 838 835 832 839 840 830 823 826 831 834 839 842 842 843 844 843 843 847 844 841 843 839 843 851 851 850 845 844 845 831 829 844 852 857 859 860 864 863 863 863 862 863 864 865 864 864
806 808 810 811 813 815 816 819 819 819 820 821 821 819 819 819 819 820 819 817 812 806 804 804 806 806 806 807 808 810 812 810 811 814 816 818 821 824 823 824 829 834 834 828 826 829 828 827 828 829 831 832 837 843 843 842 842 842 843 843 838 838 842 838 843 850 848 851 850 848 845 828 825 835 842 855 862 860 863 863 863 864 863 864 865 865 865 864
804 806 807 809 812 812 815 817 816 818 819 819 818 816 819 819 819 821 820 819 813 805 803 802 802 801 798 803 805 806 809 808 807 808 811 814 816 821 823 823 827 829 828 828 831 826 823 829 831 832 834 833 835 840 840 838 838 839 840 838 835 834 838 841 848 850 846 846 846 848 843 825 823 830 834 848 857 856 861 861 859 862 863 863 863 863 864 864
802 804 805 807 809 811 815 814 813 816 816 816 814 814 819 818 820 822 820 826 817 800 801 800 797 795 793 799 803 805 811 809 805 807 809 812 811 814 821 824 826 825 825 830 834 828 826 831 831 831 836 836 837 837 835 837 838 838 838 836 835 835 839 845 848 849 846 843 847 853 844 826 820 822 830 844 849 851 857 858 857 859 861 861 861 861 863 864
799 801 803 805 806 808 811 809 810 813 814 814 810 813 818 816 822 821 821 836 816 786 791 797 793 791 790 797 798 802 810 805 805 809 809 811 811 812 816 821 825 827 827 832 833 828 827 833 834 831 834 837 838 833 832 836 836 837 841 841 838 838 843 846 846 847 843 842 849 851 846 836 823 821 835 844 845 847 851 852 854 856 858 859 860 861 862 863
795 798 800 802 803 804 804 805 807 809 811 812 809 814 816 816 822 818 826 840 807 773 783 793 791 790 791 798 797 799 805 801 803 810 810 811 812 812 814 815 817 822 826 827 826 824 825 830 831 830 833 834 830 828 830 833 833 839 847 847 843 842 843 844 845 845 844 847 847 842 846 845 826 821 840 846 841 841 843 844 848 852 855 857 859 860 861 862
792 795 797 799 801 801 802 802 804 806 809 810 811 814 814 819 820 817 835 833 789 770 783 786 790 794 795 800 800 802 805 803 805 809 811 812 811 813 816 816 815 820 826 823 820 824 829 832 830 827 829 827 828 834 836 830 832 843 850 847 846 848 847 847 846 843 849 854 843 833 839 840 823 812 825 839 834 828 830 835 840 846 852 855 857 859 860 861
788 790 793 796 797 798 799 800 801 804 807 808 811 814 816 821 819 826 843 817 772 775 788 784 790 796 795 801 804 805 805 806 809 809 812 813 812 815 817 818 819 822 827 827 824 828 833 836 834 829 827 827 833 845 846 840 839 844 844 841 844 847 846 847 846 845 852 850 837 833 834 834 829 811 804 816 818 813 819 828 836 844 850 852 855 857 858 860
784 787 790 792 792 793 795 796 798 803 807 808 810 814 817 823 823 829 825 789 767 783 789 789 795 794 793 795 799 803 805 809 810 808 811 813 814 817 817 819 821 825 830 828 827 830 833 834 832 830 833 833 835 843 849 850 847 843 836 835 842 845 846 848 848 851 853 841 835 844 844 838 833 812 796 803 812 814 816 820 830 840 845 849 852 854 856 858
780 782 786 787 788 789 791 792 796 802 806 807 809 811 815 827 827 817 799 775 773 781 779 787 796 793 792 790 792 800 803 807 808 806 808 810 812 812 811 810 813 823 829 824 825 830 829 827 827 830 835 833 829 835 846 850 847 840 834 836 841 844 849 849 848 851 846 838 844 852 848 843 828 805 798 804 812 819 820 820 826 832 839 845 849 852 855 857
774 777 781 783 784 785 787 790 795 802 804 806 809 807 814 826 814 796 788 777 775 777 776 783 790 791 791 790 794 800 800 803 806 807 808 808 810 809 808 807 806 810 814 815 823 828 825 825 828 830 830 827 821 823 833 840 840 836 830 831 833 840 850 849 847 850 842 840 851 852 846 840 820 803 804 809 816 826 830 830 829 830 836 841 846 851 853 856
770 773 776 778 780 782 784 789 794 799 801 804 807 807 814 815 793 780 783 776 773 781 783 784 790 793 791 791 794 795 798 804 804 807 810 810 810 809 807 809 808 806 809 815 819 820 820 817 817 820 819 818 816 812 814 822 830 831 825 825 827 828 833 834 832 832 832 839 852 855 844 825 809 812 823 827 831 836 836 838 837 834 837 841 845 850 852 855
766 768 770 773 776 779 781 786 791 795 799 802 803 805 806 796 780 776 777 771 775 783 786 787 790 794 793 794 797 793 792 799 804 807 808 806 804 801 799 801 806 805 806 811 813 816 817 808 807 817 817 814 814 812 812 816 826 833 830 829 828 819 818 833 842 839 839 841 844 847 834 810 805 822 836 838 837 839 839 841 841 839 839 843 846 849 851 853
762 764 766 767 769 773 776 782 787 790 795 798 799 797 787 772 766 769 766 763 770 778 786 790 790 792 793 794 797 796 792 795 803 806 805 805 802 798 795 793 798 801 796 798 806 812 815 811 813 822 820 817 818 816 816 816 819 830 833 829 826 821 819 835 853 857 853 838 826 828 823 810 809 817 830 838 834 835 841 841 840 840 841 844 845 847 849 850
758 760 762 761 763 767 772 778 783 787 791 791 789 781 768 759 757 758 757 757 763 768 776 782 780 782 787 789 791 794 793 794 801 801 800 804 798 792 796 792 790 794 788 787 795 798 802 808 817 821 817 823 828 822 819 819 817 823 827 820 821 827 823 823 831 842 846 834 821 821 817 809 808 810 822 832 828 828 836 838 840 842 842 843 842 844 847 848
754 757 757 755 758 762 768 775 779 785 787 785 781 771 761 758 756 753 754 756 758 763 767 768 767 769 775 779 782 788 790 789 796 798 795 798 788 777 786 789 786 788 785 786 792 791 792 800 815 825 822 824 829 822 818 822 821 820 819 814 816 822 821 821 825 828 832 830 821 821 821 812 803 801 807 815 815 817 826 835 839 838 838 839 838 841 845 847
751 754 751 747 752 758 765 771 775 781 783 780 779 771 758 756 756 754 755 755 755 759 759 756 758 764 767 768 771 781 785 783 790 793 786 788 782 771 774 777 779 785 784 785 791 791 792 795 807 824 825 823 825 819 814 817 822 823 819 817 817 814 811 815 818 816 818 820 816 818 822 810 795 789 789 793 798 804 817 829 832 829 830 831 832 836 840 842
747 750 744 741 749 756 761 768 773 778 778 773 772 766 757 756 758 757 757 756 754 755 753 748 752 758 762 764 765 771 778 779 783 783 777 776 775 771 770 769 774 782 784 786 789 791 795 793 800 820 829 822 816 810 804 803 810 816 814 815 817 816 816 815 813 812 813 813 812 815 812 795 787 789 783 782 789 795 805 816 819 820 823 826 829 831 834 838
744 746 741 739 745 751 758 766 769 769 771 770 766 761 759 758 758 758 759 758 756 755 754 751 750 751 756 761 761 764 772 777 779 778 774 772 767 764 764 762 767 778 786 792 790 787 792 792 798 816 822 812 806 808 810 805 802 803 801 802 804 807 814 814 814 819 820 813 809 813 806 787 788 801 795 789 794 797 799 805 810 815 819 822 826 827 829 833
742 742 739 739 742 747 754 758 758 762 766 764 757 756 759 759 758 759 759 759 757 756 757 756 753 752 753 754 755 760 766 771 775 773 769 765 758 754 756 758 762 770 776 783 783 781 786 790 798 810 812 809 811 818 825 820 810 804 802 799 796 797 801 801 804 814 822 820 814 818 813 793 793 809 807 803 808 808 806 806 809 814 817 820 823 825 828 831
739 738 738 739 739 742 748 753 755 761 761 755 751 754 756 757 758 758 757 756 756 756 757 757 755 754 753 752 755 758 760 762 766 763 761 760 757 758 762 760 762 767 769 773 778 783 786 786 793 804 808 810 814 818 823 823 816 806 803 803 800 796 794 795 800 804 808 810 812 818 811 792 795 811 812 811 816 816 814 811 810 813 816 819 822 824 827 830
737 738 739 740 739 738 740 745 751 758 757 754 756 756 753 754 755 754 754 753 754 755 755 755 753 753 753 754 755 756 756 758 759 758 759 759 761 769 772 765 762 762 762 764 766 772 778 778 785 799 806 808 812 812 813 816 815 804 799 802 800 797 800 804 807 809 804 798 799 806 799 785 793 808 810 811 814 813 815 814 812 814 816 818 821 823 826 829
737 739 740 740 739 737 734 733 738 748 753 754 755 753 752 752 748 747 750 750 751 752 751 751 751 751 754 757 757 756 756 755 756 760 763 761 765 774 775 771 767 762 761 762 759 761 768 769 771 780 788 791 793 791 787 793 802 802 801 803 799 797 801 801 803 807 804 798 795 794 789 785 794 802 801 804 807 807 811 816 816 817 817 818 820 821 824 827
735 737 741 741 739 738 735 730 731 738 744 749 750 748 749 748 742 744 747 747 748 749 747 748 750 751 754 757 757 757 757 757 757 759 761 761 767 776 777 775 773 769 769 768 762 762 767 767 763 759 760 761 762 764 766 774 786 793 797 799 797 796 797 795 797 797 795 800 796 785 783 788 793 796 795 795 800 802 804 812 817 818 818 818 819 820 823 825
732 733 737 738 736 736 736 734 730 729 733 740 742 740 740 741 741 744 746 743 742 744 746 748 748 750 752 752 754 755 756 758 760 759 760 763 770 779 781 777 774 773 773 770 766 764 766 767 763 758 758 758 757 761 765 768 773 778 785 791 793 795 797 795 793 787 788 798 792 778 783 788 786 789 790 788 794 798 798 805 812 813 814 817 818 819 822 824
729 729 730 731 733 733 733 732 729 727 728 733 736 735 734 736 738 739 741 742 741 741 745 748 747 745 745 746 751 756 756 757 759 759 760 766 771 776 778 775 774 775 774 772 770 766 764 766 765 765 769 769 768 771 769 767 769 772 776 782 786 791 795 792 787 783 786 788 779 775 785 785 779 783 786 784 788 790 792 800 806 808 810 814 816 819 820 822
729 730 731 732 732 732 730 729 729 730 730 732 737 738 735 733 732 733 737 742 743 740 740 743 742 740 741 742 747 754 756 754 756 757 759 764 769 772 774 773 772 776 775 771 770 770 767 768 769 770 772 774 776 778 775 773 775 775 775 776 779 785 789 787 783 783 783 780 777 783 789 782 776 780 784 785 788 791 796 802 805 805 808 812 815 817 818 819
728 728 730 733 734 734 732 730 730 732 735 737 738 740 739 735 731 731 736 739 740 740 738 737 737 739 742 742 742 747 750 750 752 755 756 761 765 767 768 768 770 775 776 771 771 774 772 771 774 774 774 780 786 785 781 781 780 779 776 773 775 781 785 786 784 782 785 784 782 788 790 781 777 780 785 791 794 796 799 802 802 804 807 810 813 814 814 815
726 725 726 729 734 736 734 733 733 734 738 739 737 738 741 739 734 735 740 740 738 739 739 738 739 744 747 746 744 747 752 754 756 757 756 758 762 763 765 768 771 774 776 776 776 776 775 777 781 778 771 778 792 792 788 789 790 786 778 773 777 781 780 781 780 778 782 784 783 787 785 777 776 781 787 793 795 794 795 797 799 802 805 808 809 810 811 812
726 726 725 726 731 735 736 736 737 735 733 733 734 736 738 739 738 738 741 743 742 741 741 741 743 748 751 751 748 749 753 756 758 760 760 760 763 765 767 772 773 773 776 781 780 780 778 776 779 776 767 780 802 800 790 793 792 780 766 763 773 778 774 775 775 773 775 777 778 780 774 770 776 782 785 789 791 791 792 794 796 799 803 806 805 806 807 808